Location: Kershaw
(34.5481°N, 80.5823°W)
Time: 11:45:11
(UTC+00:00)

Transit 4A - Visible Passes

Search period start: 05 October 2022 00:00
Search period end: 15 October 2022 00:00
Orbit: 870 x 974 km, 66.8° (Epoch: 04 October)

Date Brightness Start Highest point End Pass type
(mag) Time Alt. Az. Time Alt. Az. Time Alt. Az.
08 Oct 10.4 09:47:51 10° NNE 09:50:54 14° NE 09:53:57 10° E visible
09 Oct 9.7 00:49:17 10° S 00:50:28 15° SSE 00:50:28 15° SSE visible
09 Oct 10.1 09:56:08 10° N 10:00:29 21° NE 10:04:48 10° E visible
10 Oct 8.8 00:57:58 10° S 01:01:30 34° S 01:01:30 34° S visible
10 Oct 9.6 10:04:50 10° N 10:09:58 31° NE 10:15:04 10° ESE visible
11 Oct 7.8 01:06:59 10° SSW 01:12:37 74° SSW 01:12:37 74° SSW visible
11 Oct 8.8 10:13:44 10° NNW 10:19:21 47° ENE 10:24:55 10° SE visible
11 Oct 9.2 23:32:50 10° SE 23:36:42 17° ESE 23:40:02 11° ENE visible
12 Oct 8.2 01:16:19 10° SW 01:22:28 63° WNW 01:23:40 52° NNW visible
12 Oct 10.6 08:39:50 10° NNE 08:41:17 11° NE 08:42:44 10° ENE visible
12 Oct 8.0 10:22:49 10° NNW 10:28:38 73° ENE 10:34:26 10° SSE visible
12 Oct 8.8 23:40:36 10° SSE 23:45:42 27° ESE 23:50:43 10° NE visible
13 Oct 8.9 01:25:58 10° SW 01:31:48 42° WNW 01:34:35 27° N visible
13 Oct 10.3 08:47:22 10° N 08:50:57 16° NE 08:54:30 10° E visible
13 Oct 7.7 10:32:03 10° NNW 10:37:51 73° WSW 10:43:39 10° SSE visible
13 Oct 8.2 23:48:59 10° S 23:54:47 42° ESE 00:00:28 10° NE visible
14 Oct 9.6 01:35:58 10° WSW 01:41:12 28° NW 01:45:12 15° N visible
14 Oct 9.8 08:55:50 10° N 09:00:29 24° NE 09:05:07 10° ESE visible
14 Oct 8.0 10:41:28 10° NW 10:47:00 46° WSW 10:52:30 10° S visible
